FLOCK 4Y 11

导读

FLOCK 4Y 11是美国于2023年1月3日发射的SuperDove遥感卫星,属于Planet公司FLOCK 4Y卫星组,是其Dove商业遥感星座的组成部分。该卫星配备八个光谱波段,具备多光谱成像能力,可提供高分辨率对地观测数据,能够补充星座在轨容量,为农业、林业等行业应用与决策提供高质量遥感影像支撑,服务于全球对地观测市场需求。

基本信息
目录编号:
55043
目录名称:
FLOCK 4Y 11
国际标识:
2023-001AL
轨道中心:
EARTH
卫星名称:
FLOCK 4Y 11
卫星全名:
--
卫星状态:
已陨落 最后检测时间 2025-10-19
发射日期:
2023-01-03 UTC
国别 :
美国 (US)
星等 :
--
轨道信息
数据来源 国际轨道数据
星历时间: 2025-10-19T10:29:02+0800
轨道信息已过期235天
半长轴: 6540.085km
偏心率: 0.0013161
轨道倾角: 97.339°
近地点辐角 264.170°
升交点赤经 9.220°
平近点角 95.810°
近地点: 153.342km
远地点: 170.558km
周期: 87.727分钟
每日圈数: 16.414503
详细信息
使用方式:
暂无